User: anonymous
Location: Unspecified
(0.0000°N, 0.0000°E)
Time: 22:07:43
(UTC+00:00)
Language:

Tiros 2 - Orbit

View from above orbital plane
View from above orbital plane
View from above satellite
View from above satellite

Ground track
Ground track

The orbit data is extracted from the following two-line orbital elements,

1 00063U 60016A   14113.36766205  .00338767  56352-4  81057-3 0  3657
2 00063 048.4996 058.2984 0004339 193.1799 166.9051 15.95929103912368
Epoch (UTC): 23 April 2014 08:49:26
Eccentricity: 0.0004339
inclination: 48.4996°
perigee height: 283 km
apogee height: 288 km
right ascension of ascending node: 58.2984°
argument of perigee: 193.1799°
revolutions per day: 15.95929103
mean anomaly at epoch: 166.9051°
orbit number at epoch: 91236

The dashed part of the orbit path shows where the satellite is in the earth's shadow,  

DLR